Location: Henau
(47.4548°N, 9.1164°E)
Time: 22:52:24
(UTC+00:00)

Daily predictions for brighter satellites

Satellite Brightness Start Highest point End
(mag) Time Altitude Azimuth Time Altitude Azimuth Time Altitude Azimuth
Cosmos 1975 3.8 17:20:45 10° SSW 17:24:43 54° WNW 17:28:42 10° N
Cosmos 2263 Rocket 2.2 17:20:02 10° NNW 17:25:44 68° ENE 17:31:24 10° SE
COSMO-SKYMED 1 2.6 17:21:30 10° NNE 17:25:49 59° E 17:30:06 10° S
Cosmos 1437 Rocket 4.1 17:27:37 10° SE 17:30:07 17° E 17:32:37 10° NE
Spot 1 4.4 17:27:20 10° NNE 17:31:17 39° E 17:35:05 10° SSE
ASTEX 1 3.5 17:26:47 10° NNE 17:31:44 60° E 17:36:40 10° S
HJ-1C 4.3 17:29:42 10° SE 17:32:17 24° ENE 17:34:53 10° NNE
Cosmos 1741 Rocket 4.0 17:27:30 10° S 17:32:44 69° ESE 17:37:59 10° NNE
CZ-4C R/B 4.1 17:30:47 10° N 17:35:00 61° WNW 17:39:00 10° SSW
USA 267 3.3 17:29:28 10° ESE 17:36:02 88° NE 17:42:39 10° NW
Cosmos 1626 3.8 17:33:15 10° NNW 17:36:39 38° W 17:40:01 10° SSW
Cosmos 1814 Rocket 4.2 17:32:06 10° NNW 17:37:15 52° ENE 17:42:18 10° SE
SL-4 R/B 2.3 17:33:07 10° WNW 17:37:32 88° NNE 17:42:11 10° ESE
Cosmos 2084 Rocket 4.4 17:36:59 10° NNW 17:40:17 27° NE 17:43:23 11° E
Cosmos 1805 3.2 17:37:35 10° S 17:41:27 84° E 17:45:22 10° N
Cosmos 1242 Rocket 2.9 17:39:13 10° SSW 17:42:45 67° WNW 17:46:17 10° N
Cosmos 2227 4.3 17:37:28 10° NNW 17:43:01 57° ENE 17:48:33 10° SE
Okean-O 4.3 17:42:55 11° E 17:45:22 16° ENE 17:48:03 10° NNE
ISS -2.3 17:44:16 10° WNW 17:47:23 35° SW 17:50:29 10° SSE
CZ-4 R/B 2.0 17:44:01 10° SE 17:47:51 37° ENE 17:51:43 10° N
Cosmos 1697 Rocket 4.0 17:42:40 10° SW 17:48:00 43° NW 17:53:23 10° NNE
BREEZE M DEB (TANK) 4.0 17:43:55 10° SSW 17:50:35 26° SSE 17:53:03 14° ESE
Cosmos 1908 Rocket 3.9 17:49:06 10° SSE 17:53:08 40° E 17:57:12 10° NNE
IRIDIUM 103 4.4 17:48:29 10° SSE 17:53:34 56° E 17:58:40 10° NNE
Meteor 2-21 4.4 17:47:43 10° S 17:53:41 67° E 17:59:41 10° NNE
OBJECT-B 2.4 17:54:14 12° NE 17:54:14 12° NE 17:55:00 10° NE
MOS 1-B 4.3 17:48:05 10° SSE 17:53:53 81° ENE 17:59:43 10° NNW
SL-14 R/B 3.5 17:50:02 10° NNW 17:54:01 78° W 17:58:00 10° S
Cosmos 1733 3.8 17:51:17 10° SSW 17:54:59 59° W 17:58:42 10° N
Cosmos 2360 Rocket 3.5 17:51:50 10° SE 17:55:21 17° E 17:58:52 10° ENE
Cosmos 1809 Rocket 4.4 17:52:14 10° S 17:58:19 87° E 18:04:27 10° N
Cosmos 1766 3.2 17:57:25 10° S 18:01:18 68° E 18:05:14 10° NNE
Cosmos 1782 Rocket 4.4 17:57:46 10° SSE 18:01:26 27° E 18:05:07 10° NNE
Meteor 2-10 4.3 17:57:15 10° SSW 18:02:53 83° W 18:08:22 10° N
Cosmos 1674 Rocket 3.7 17:58:50 10° NNW 18:03:16 79° W 18:07:41 10° S
Cosmos 1025 Rocket 4.0 18:02:11 10° NNE 18:05:52 26° ENE 18:07:56 18° ESE
YAOGAN 1 2.5 18:01:45 10° SSE 18:06:04 79° ENE 18:10:24 10° N
Cosmos 2026 Rocket 4.4 18:02:03 10° SSE 18:07:27 36° E 18:12:53 10° NNE
Cosmos 968 Rocket 3.6 18:02:56 10° S 18:07:59 51° ESE 18:13:03 10° NNE
Okean O Rocket 1.5 18:05:35 10° SSE 18:09:54 72° ENE 18:14:18 10° N
IRIDIUM 106 4.2 18:06:37 10° S 18:11:50 80° E 18:17:04 10° N
Lacrosse 4 Rocket 2.3 18:09:27 10° SSE 18:12:49 25° ESE 18:13:56 22° E
Nadezhda 4 Rocket 4.0 18:08:53 10° S 18:15:12 80° E 18:21:32 10° N
Meteor 2-5 Rocket 3.7 18:10:11 10° N 18:15:39 57° ENE 18:21:05 10° SSE
Meteor 1-15 Rocket 4.1 18:11:28 10° S 18:16:58 65° E 18:22:29 10° NNE
CSL-04 Rocket 4.2 18:13:27 16° SE 18:17:14 38° ENE 18:22:12 10° N
Cosmos 2285 Rocket 4.1 18:15:49 10° NNW 18:22:12 84° WSW 18:28:36 10° SSE
USA 186 2.5 18:22:41 32° E 18:23:01 33° ENE 18:26:05 10° N
Cosmos 1726 3.2 18:20:00 10° SSW 18:23:31 47° WNW 18:27:05 10° N
Cosmos 2322 Rocket 2.5 18:18:32 10° S 18:23:52 43° ESE 18:29:13 10° NE
Cosmos 2237 4.5 18:19:05 10° S 18:24:28 44° ESE 18:29:51 10° NE
Cosmos 1470 2.7 18:24:22 10° S 18:28:07 55° E 18:31:54 10° NNE
CZ-4B R/B 3.7 18:23:07 10° S 18:28:27 62° WSW 18:33:56 10° NNW
Cosmos 1980 Rocket 3.6 18:24:50 10° WSW 18:30:07 40° NW 18:35:24 10° NNE
Cosmos 1975 Rocket 3.2 18:26:45 10° N 18:31:03 48° ENE 18:33:09 27° SE
CRYOSAT 2 4.5 18:34:18 16° SSE 18:37:59 53° E 18:42:46 10° N
Cosmos 2292 Rocket 3.5 18:33:09 10° S 18:38:20 90° W 18:42:16 10° N
USA 215 3.8 18:37:01 10° NE 18:43:23 56° NNW 18:49:43 10° W
IRS-1C Rocket 4.2 18:43:42 30° SE 18:46:06 55° ENE 18:51:14 10° N
Cosmos 1844 Rocket 2.6 18:44:52 10° NNW 18:50:33 69° ENE 18:52:59 35° SE
SL-16 R/B 2.2 18:48:24 10° SSW 18:54:04 85° WNW 18:59:48 10° NNE
Landsat 5 3.5 18:51:19 10° NNE 18:55:50 71° ESE 19:00:13 10° S
Cosmos 1092 Rocket 4.0 18:50:24 10° S 18:56:43 88° W 19:03:01 10° N
Resurs 01 Rocket 2.9 19:01:19 27° NE 19:01:19 27° NE 19:04:06 10° N
Cosmos 836 Rocket 4.4 18:56:35 10° NNW 19:01:56 76° ENE 19:03:34 45° SE
SJ-6B 2.6 19:02:07 71° S 19:02:30 85° WSW 19:06:19 10° NNW
Cosmos 2278 Rocket 3.8 19:01:33 10° N 19:05:26 18° NE 19:05:41 18° NE
H-2A R/B 3.7 19:07:12 26° NNE 19:07:12 26° NNE 19:09:15 10° N
Cosmos 1437 Rocket 4.2 19:02:30 10° SW 19:05:58 36° WNW 19:09:28 10° N
Meteor 1-24 Rocket 4.1 19:05:42 10° NNW 19:10:55 59° W 19:16:11 10° S
Resurs 1-3 3.4 19:11:26 78° ESE 19:11:36 79° ENE 19:16:01 10° N
SL-4 R/B 3.8 19:12:54 10° W 19:16:44 27° SW 19:17:51 24° SSW
Cosmos 2084 Rocket 4.0 19:16:06 10° NW 19:19:48 44° SW 19:19:51 44° SW
Okean-O 2.8 19:20:29 54° SSW 19:21:19 67° WSW 19:25:44 10° NNW
CZ-4 R/B 3.8 19:19:31 10° SSW 19:22:53 23° W 19:26:14 10° NW
Cosmos 1486 Rocket 3.9 19:18:05 10° SSW 19:23:24 87° ESE 19:28:47 10° NNE
OBJECT-B 3.6 19:24:56 14° NW 19:24:56 14° NW 19:25:31 10° NW
Cosmos 1844 3.6 19:19:28 10° NNW 19:25:03 80° WSW 19:26:13 57° S
IGS 5A 4.1 19:24:37 47° SW 19:25:15 53° W 19:29:20 10° NNW
DNEPR-1 R/B 4.0 19:23:05 10° SW 19:27:49 80° NW 19:30:36 30° NNE
S3M 3.9 19:23:58 10° N 19:30:09 60° ENE 19:30:09 60° ENE
Cosmos 1300 Rocket 3.9 19:30:15 59° WSW 19:30:39 63° WNW 19:35:00 10° N
Cosmos 773 Rocket 4.2 19:26:14 10° NNW 19:31:00 60° NNE 19:31:00 60° NNE
Meteor 1-21 Rocket 4.4 19:26:47 10° N 19:31:34 54° NE 19:31:34 54° NE
Cosmos 2360 Rocket 2.2 19:32:57 10° SSW 19:38:37 81° WNW 19:44:18 10° NNE
Cosmos 1417 Rocket 4.4 19:44:25 10° N 19:50:35 82° W 19:51:04 75° SSW
Lacrosse 4 Rocket 2.9 19:47:24 10° WSW 19:50:17 33° W 19:50:17 33° W
ATLAS 2AS CENTAUR R/B 3.9 19:54:27 10° NW 20:00:41 29° NNE 20:01:35 29° NE
MOS 1 4.4 20:01:33 70° NW 20:01:33 70° NW 20:06:42 10° NNW
SPOT 1/Viking Rocket 4.3 20:07:53 50° NW 20:07:53 50° NW 20:11:48 10° NNW
Cosmos 2322 Rocket 3.6 20:02:44 10° WSW 20:08:00 37° NW 20:13:17 10° NNE
NOSS 3-4 (A) 3.8 20:05:30 10° NW 20:12:04 74° NNE 20:12:04 74° NNE
NOSS 3-4 (C) 3.8 20:05:36 10° NW 20:12:10 73° NNE 20:12:10 73° NNE
Ariane Rocket 4.3 20:16:26 35° NNW 20:16:26 35° NNW 20:19:20 10° NNW
USA 215 4.3 20:24:15 35° NNE 20:25:42 39° N 20:31:39 10° WNW
USA 281 3.9 20:27:40 43° NNE 20:27:40 43° NNE 20:32:25 10° NNW
Resurs 01 Rocket 4.1 20:38:52 20° NW 20:38:52 20° NW 20:40:34 10° NNW
Terra 4.4 20:42:43 15° N 20:42:43 15° N 20:43:30 10° N
Cosmos 1943 Rocket 4.2 20:37:01 10° N 20:38:59 19° N 20:38:59 19° N
Cosmos 2278 Rocket 3.8 20:44:46 10° NNW 20:47:32 30° NNW 20:47:32 30° NNW
ATLAS 2AS CENTAUR R/B 4.3 21:45:36 10° NW 21:49:00 30° NW 21:49:00 30° NW
